Hauptseite
METAR-TAF:

METAR-TAF

Flughäfen :

Flughafen Epinal-Mirecourt

Épinal, Frankreich

Breite: 48-19-31N, Länge: 6-04-00E, Höhe: 330 m

Beobachtung

Neuester Wetterbericht von vor 31 Minuten, um 22:30 UTC
Wind 5 kt aus Nord/Nordost
Temperatur 0°C
Luftfeuchtigkeit 93%
Luftdruck 1024 hPa
Sichtweite: 7000 m

METAR: LFSG 162230Z AUTO 03005KT 7000 NSC M00/M01 Q1024

Zeit: 00:01 (23:01 UTC)


TAF: fehlend

Wetterbeobachtungen und Prognosen von mehr als 4000 Flughäfen (METAR und TAF Bericht).

Die verfügbaren Stationen werden durch gelbe und rote Markierungen auf der Karte dargestellt.

Führen Sie die Maus auf sie, um den Namen der Station zu sehen.

Darauf klicken, um die Beobachtung von Wetterbeobachtungen und Prognosen zu sehen.

Um die Karte zu ändern : klicken Sie auf den grünen Tasten mit einem schwarzen Kreuz Zum Vergrößern, auf den grünen Button mit einem Gedankenstrich zu verkleinern, oder auf die grünen Pfeile für benachbarte Karten.


METAR-TAF: